Back to catalog

CZ-6A DEB

AliveSSO
NORAD 56640·DEBRIS·🇨🇳 China

Launched Nov 11, 2022 from Taiyuan Satellite Launch Center

Loading…

Next Passes (next 24 hours)

TLE

AgingSource: Space-Track

Epoch: Sep 9, 2026, 14:34 UTC

1 56640U 22151AFQ 26252.60724841  .00000404  00000-0  31008-3 0  9994
2 56640  98.8008 199.4992 0129952 203.2366 156.2888 13.94799576176641

Track CZ-6A DEB in real time with AllMySat

Download on the App Store